User: anonymous   Login
Location: Vancouver
(49.2500°N, 123.1330°W)
Time: 19:25:02
(UTC-08:00)
Language:

Cosmos 676 Rocket - Orbit

View from above orbital plane
View from above orbital plane
View from above satellite
View from above satellite

Ground track
Ground track

The orbit data is extracted from the following two-line orbital elements,

1 07434U 74071B   14331.91477492  .00000521  00000-0  18671-3 0  3709
2 07434 074.0470 125.8007 0021929 267.5988 255.3286 14.36339829102847
Epoch (UTC): 27 November 2014 21:57:16
Eccentricity: 0.0021929
inclination: 74.0470°
perigee height: 755 km
apogee height: 786 km
right ascension of ascending node: 125.8007°
argument of perigee: 267.5988°
revolutions per day: 14.36339829
mean anomaly at epoch: 255.3286°
orbit number at epoch: 10284

The dashed part of the orbit path shows where the satellite is in the earth's shadow,  

DLR